Location: Unspecified
(33.6682°S, 0.0000°E)
Time: 01:01:29
(UTC+00:00)

Vanguard 2 Rocket - Pass Details

Date: 26 June 2019
Orbit: 554 x 3326 km, 32.9° (Epoch: 13 October)

Event Time Altitude Azimuth Distance (km) Brightness Sun altitude
Rises 14:06:41 0° 260° (W) 4,518 10.7 25.8°
Reaches altitude 10° 14:11:01 10° 274° (W) 3,039 10.2 25.3°
Maximum altitude 14:16:04 21° 320° (NW) 1,820 11.3 24.8°
Drops below altitude 10° 14:19:47 10° 10° (N) 2,147 9.6 24.3°
Sets 14:22:15 0° 28° (NNE) 2,879 9.8 24.0°
